Wind_Speed
13 15 15 15 14 13 11 11 11 11 10 10 9 8 8 7 7 9 10 10 9 9 8 7 6 6 4 4 4 5 6 7 8 10 12 14 15 17 17 18 18 18 18 18
13 14 14 14 13 11 10 10 10 9 10 9 8 8 7 7 7 8 9 10 10 9 8 7 6 5 4 4 5 5 6 7 8 10 12 14 15 17 18 18 18 18 18 18
11 12 13 12 12 11 10 9 9 9 9 8 8 7 7 7 7 8 9 9 9 9 8 8 7 6 5 5 5 5 6 7 8 10 11 13 15 17 17 17 18 19 19 18
11 11 12 12 11 11 11 10 9 8 9 9 8 6 6 5 6 8 9 10 9 9 9 8 7 6 5 5 6 6 6 7 8 10 11 13 15 16 17 17 18 18 18 18
11 11 12 12 11 11 11 10 9 8 8 8 7 6 5 5 7 7 8 9 9 8 8 8 7 7 6 6 6 6 6 7 8 9 11 13 14 16 17 17 17 18 18 19
11 11 12 12 12 11 10 10 9 8 8 7 6 6 5 5 6 6 7 8 8 8 8 8 8 7 7 6 6 7 7 7 8 9 11 13 14 15 16 17 17 17 18 19
11 12 11 12 12 11 10 10 9 9 7 6 6 5 4 4 5 5 6 7 7 8 8 8 7 7 8 7 7 7 7 8 8 9 11 12 14 15 16 16 16 17 18 18
11 12 12 12 11 10 9 9 8 7 6 6 5 4 4 4 4 5 5 6 6 6 7 7 8 8 8 8 8 8 8 8 9 10 11 12 13 14 15 15 16 16 17 18
11 11 11 10 10 9 9 8 6 6 5 5 5 4 4 3 3 4 5 5 6 6 7 8 8 8 8 8 8 8 9 9 9 10 11 12 13 14 14 15 15 16 16 17
10 10 9 8 8 8 7 6 5 4 4 4 4 3 3 3 3 4 5 5 6 6 7 8 8 8 8 9 9 9 9 10 10 11 11 12 12 13 14 14 15 15 16 16
8 7 7 7 6 6 5 5 4 3 3 3 3 2 2 2 3 3 4 6 6 7 8 9 9 10 10 10 10 10 10 11 11 11 11 12 12 13 13 14 14 15 15 15
6 5 5 5 5 5 4 3 3 3 3 3 3 2 3 3 4 4 5 6 8 8 9 10 10 11 11 11 11 12 11 12 12 12 12 12 12 13 13 13 14 14 14 14
5 4 4 4 4 4 3 3 3 3 3 3 4 4 4 5 6 6 7 8 8 9 10 11 11 12 12 13 13 13 13 13 13 13 13 13 13 13 13 14 14 14 13 13
3 3 3 2 3 3 3 3 4 4 4 5 5 5 6 7 7 8 8 9 9 10 11 11 12 12 13 13 14 14 14 14 14 14 14 14 14 14 14 14 14 14 13 13
2 2 2 3 4 4 4 5 5 6 6 6 6 6 7 8 9 9 10 10 11 11 11 12 13 13 13 14 14 15 15 15 16 15 15 15 15 15 15 15 14 14 13 13
3 3 3 4 5 6 6 6 7 7 8 8 8 8 9 10 11 11 11 12 12 13 13 13 14 15 15 15 15 16 16 17 17 17 17 17 16 16 16 16 15 15 14 14
4 5 6 6 7 8 8 8 9 10 10 10 10 11 11 12 12 13 14 14 15 15 15 15 16 16 17 17 17 17 17 18 18 18 18 18 18 18 18 17 17 16 15 15
7 7 8 9 10 11 10 11 12 12 13 13 13 13 14 14 15 15 16 16 17 17 17 17 18 18 18 18 19 19 19 19 19 19 19 19 19 19 19 19 18 18 17 16
9 10 11 11 12 13 13 13 14 14 15 15 16 16 17 17 18 18 19 19 19 20 20 19 20 21 21 21 21 21 20 20 20 20 21 21 21 21 20 20 20 19 19 18
12 13 14 14 15 15 14 15 16 17 17 17 18 19 20 20 20 21 21 22 22 23 23 23 23 23 24 24 24 24 23 23 23 23 23 23 23 23 23 22 22 22 21 20
15 16 16 17 17 17 17 17 18 19 19 20 21 21 22 23 24 24 24 25 25 26 26 27 27 27 27 27 27 27 26 26 26 26 26 26 26 25 25 25 24 24 23 23
17 18 19 19 20 20 20 20 21 22 23 23 23 24 25 26 26 27 27 27 28 28 29 29 30 30 30 30 30 30 30 30 29 29 28 28 28 28 28 28 27 26 26 25
19 20 21 21 22 23 23 23 24 24 25 25 26 27 28 29 29 30 30 30 31 31 32 32 33 33 33 33 33 33 33 33 33 32 32 31 31 30 30 30 30 29 28 28
22 22 23 24 25 26 26 27 27 28 29 29 30 31 31 32 33 34 34 35 35 36 36 36 36 36 36 36 37 37 37 37 36 36 36 35 34 33 33 33 33 32 31 30
25 26 27 28 29 30 30 31 31 32 33 34 35 35 36 37 38 39 39 39 40 40 41 41 41 41 41 41 40 41 41 40 39 39 39 39 38 37 36 35 35 35 34 33
29 31 31 31 32 33 33 34 35 36 37 39 40 40 41 42 42 43 43 44 44 44 45 45 45 45 45 45 45 44 44 44 43 42 41 41 40 39 38 38 37 36 36 36
Wind_Direction
189 192 193 196 201 204 207 208 210 219 217 212 216 218 222 229 230 228 222 217 215 211 208 214 216 221 236 266 291 309 322 333 341 346 350 351 350 348 347 345 344 343 341 338
177 180 183 190 196 198 202 206 210 211 207 205 211 215 222 230 233 230 220 214 208 206 211 218 221 228 247 273 291 306 321 333 340 345 349 350 350 349 348 347 346 345 343 342
169 171 175 179 181 182 183 189 187 189 191 197 204 210 217 225 227 220 213 211 205 209 215 224 226 234 251 273 289 303 320 331 339 344 348 349 350 350 349 349 349 348 346 345
159 165 171 173 175 170 170 172 171 175 182 188 196 201 206 214 217 213 206 204 204 211 219 227 229 241 255 273 287 301 316 327 336 342 346 348 350 350 349 349 351 351 349 349
148 155 158 161 161 164 166 168 172 172 175 186 196 201 200 210 214 211 206 205 208 214 222 230 236 245 258 271 286 299 310 320 330 337 342 346 347 349 349 349 351 352 351 351
139 147 152 153 153 156 162 168 169 170 170 172 176 191 197 203 209 210 210 210 211 216 223 233 244 253 261 270 283 297 306 314 324 332 338 342 345 347 349 350 350 351 352 353
132 139 145 151 152 151 153 157 159 164 166 159 165 179 187 202 214 218 216 216 218 222 229 241 253 261 265 270 280 292 301 310 319 327 333 338 342 346 348 350 350 350 352 354
129 137 143 146 149 151 152 155 156 161 161 158 167 171 185 204 224 226 223 226 231 237 241 249 259 266 270 274 280 288 296 304 312 320 328 334 339 343 346 348 349 351 352 354
129 135 138 142 142 145 147 151 152 160 165 171 171 174 187 205 222 226 229 234 244 252 253 255 261 268 274 278 283 290 295 299 305 313 321 327 333 338 342 345 348 350 353 355
131 135 137 138 142 144 147 151 154 168 178 179 173 179 195 214 243 245 241 245 255 261 261 262 267 272 278 282 286 291 293 295 299 306 314 321 328 333 337 340 344 348 351 354
132 135 138 142 150 155 156 163 167 169 182 187 189 215 238 254 254 259 250 252 260 265 266 266 270 274 279 283 287 291 292 293 295 300 308 315 322 327 332 335 339 343 347 351
128 134 142 150 158 164 169 177 189 202 202 218 235 255 260 271 272 275 271 266 267 271 273 273 274 276 279 283 286 289 291 293 293 296 302 308 314 319 324 329 333 337 341 345
131 140 158 171 176 187 206 226 237 247 254 255 256 263 269 274 277 281 283 280 278 279 280 280 280 281 283 285 286 287 289 290 291 294 297 301 305 310 316 321 325 330 334 338
152 161 174 194 212 226 243 260 263 266 266 264 264 265 272 276 278 281 286 287 287 286 286 284 285 285 285 287 287 286 286 288 289 290 293 295 297 301 307 312 316 321 327 331
195 209 229 242 252 261 270 273 275 278 278 276 273 274 278 276 277 279 285 287 288 289 290 289 287 287 288 287 287 288 288 287 288 288 290 292 293 295 299 304 308 312 317 322
229 247 257 262 268 271 275 280 282 284 284 282 280 279 279 279 279 282 285 286 288 289 292 292 290 288 288 287 286 288 289 288 288 287 288 289 291 292 294 297 301 304 307 312
259 268 270 273 273 275 278 282 283 282 281 281 280 279 278 278 280 282 284 286 288 289 289 290 290 289 288 287 287 287 288 287 286 285 285 286 288 289 291 292 294 297 300 303
265 270 273 275 277 279 287 285 283 282 281 280 280 280 279 279 280 283 283 284 285 286 287 287 287 286 287 287 286 287 288 287 286 285 284 284 285 287 288 289 290 291 293 295
271 274 276 278 278 281 285 285 283 282 280 280 281 280 280 280 280 281 282 282 283 284 285 285 285 285 285 285 285 285 286 286 285 285 284 284 284 285 286 286 286 287 288 289
277 278 280 282 281 282 284 281 280 280 279 281 280 280 280 280 280 280 280 281 282 282 283 284 284 284 284 284 284 284 284 284 284 284 283 283 283 283 283 283 283 284 285 285
279 281 282 283 283 283 284 282 279 277 281 282 282 282 281 279 279 279 279 280 281 281 282 282 283 283 282 282 282 282 282 282 282 282 281 281 281 281 281 281 281 281 281 282
279 281 282 283 284 285 284 283 281 280 281 282 283 283 281 280 280 280 280 280 281 281 282 282 281 281 282 282 281 280 280 280 281 281 280 279 278 278 278 278 278 278 278 279
280 282 283 283 284 284 284 283 282 282 283 283 283 284 284 283 282 282 282 281 281 281 282 281 280 280 280 280 280 279 279 278 279 279 278 278 277 277 277 276 276 276 276 276
281 283 283 283 284 285 285 285 284 283 283 284 284 285 286 285 284 284 284 284 283 283 282 282 281 280 279 279 279 279 279 278 277 277 277 277 276 275 275 275 274 274 273 273
282 281 282 282 283 283 284 284 285 285 285 285 286 286 286 286 286 285 285 285 284 283 283 283 282 280 279 278 278 278 278 278 277 276 276 275 275 274 273 272 272 271 270 271
281 281 281 281 281 282 283 284 285 285 285 286 287 287 287 287 287 286 285 284 284 283 283 283 282 281 280 280 278 277 277 277 277 276 275 273 273 272 272 271 270 270 269 269
Height
5795 5800 5803 5807 5810 5813 5815 5818 5821 5823 5825 5827 5829 5831 5833 5834 5835 5837 5838 5839 5840 5841 5843 5843 5844 5844 5845 5844 5844 5843 5842 5841 5839 5837 5835 5832 5829 5826 5823 5819 5816 5812 5809 5805
5797 5799 5803 5806 5809 5812 5815 5818 5820 5822 5824 5827 5828 5830 5832 5833 5834 5835 5836 5838 5839 5840 5841 5842 5843 5843 5843 5843 5842 5842 5841 5839 5837 5835 5833 5831 5828 5825 5822 5818 5814 5810 5807 5803
5797 5801 5803 5806 5809 5812 5814 5817 5819 5822 5824 5825 5828 5830 5831 5832 5833 5834 5835 5837 5838 5839 5840 5841 5841 5842 5842 5841 5841 5840 5839 5838 5836 5834 5832 5830 5827 5823 5820 5817 5813 5809 5805 5801
5798 5801 5804 5807 5810 5812 5815 5817 5819 5821 5824 5825 5828 5829 5831 5831 5832 5833 5834 5835 5837 5838 5839 5840 5840 5840 5840 5840 5839 5839 5837 5836 5835 5833 5831 5828 5826 5823 5819 5816 5812 5808 5804 5800
5800 5803 5805 5808 5811 5813 5815 5818 5820 5822 5824 5826 5827 5829 5831 5831 5832 5833 5833 5834 5836 5837 5837 5838 5839 5838 5838 5838 5838 5837 5836 5835 5833 5831 5829 5827 5825 5822 5818 5815 5811 5807 5804 5800
5803 5805 5807 5809 5812 5814 5816 5819 5820 5822 5824 5826 5827 5829 5830 5830 5831 5832 5833 5834 5834 5835 5836 5837 5837 5837 5836 5836 5836 5835 5834 5833 5832 5830 5828 5826 5823 5820 5817 5814 5810 5807 5803 5799
5805 5807 5809 5811 5813 5816 5818 5820 5822 5823 5825 5827 5828 5829 5830 5830 5831 5831 5832 5833 5834 5834 5835 5835 5835 5835 5835 5835 5834 5834 5833 5832 5830 5829 5827 5825 5822 5819 5816 5813 5810 5806 5803 5799
5808 5810 5812 5813 5815 5817 5819 5821 5824 5825 5826 5827 5828 5829 5830 5830 5830 5831 5832 5832 5833 5833 5833 5833 5833 5833 5833 5833 5832 5832 5831 5830 5828 5827 5825 5823 5821 5818 5815 5812 5809 5806 5802 5798
5811 5813 5814 5815 5817 5819 5820 5822 5824 5825 5826 5827 5828 5829 5830 5830 5830 5830 5831 5831 5832 5832 5832 5832 5832 5832 5831 5831 5830 5830 5829 5828 5826 5825 5824 5822 5819 5817 5814 5811 5808 5805 5802 5798
5813 5815 5817 5818 5819 5821 5822 5823 5824 5826 5826 5827 5828 5829 5830 5829 5829 5830 5830 5830 5830 5830 5830 5830 5830 5829 5829 5829 5828 5827 5827 5826 5825 5823 5822 5820 5818 5816 5813 5811 5808 5805 5801 5798
5815 5817 5819 5819 5820 5821 5823 5824 5824 5825 5826 5828 5828 5831 5829 5829 5829 5829 5829 5829 5829 5828 5828 5828 5828 5827 5827 5826 5826 5825 5824 5823 5822 5821 5820 5818 5816 5814 5812 5809 5807 5804 5801 5798
5817 5819 5819 5821 5821 5822 5823 5824 5825 5826 5827 5827 5828 5831 5828 5828 5828 5828 5827 5827 5827 5827 5826 5825 5825 5824 5824 5824 5823 5822 5822 5821 5820 5819 5817 5816 5814 5812 5810 5808 5805 5803 5800 5797
5819 5820 5821 5821 5824 5823 5823 5824 5824 5825 5826 5826 5827 5830 5827 5827 5826 5826 5826 5825 5825 5825 5824 5823 5823 5822 5821 5821 5820 5819 5819 5818 5817 5816 5815 5813 5812 5810 5808 5806 5804 5802 5799 5796
5819 5820 5822 5822 5822 5822 5822 5823 5823 5824 5824 5824 5825 5825 5825 5824 5824 5824 5823 5823 5822 5822 5821 5820 5820 5819 5818 5818 5817 5816 5815 5814 5814 5813 5811 5810 5809 5808 5806 5804 5802 5800 5797 5795
5819 5820 5820 5820 5821 5821 5821 5822 5822 5822 5822 5822 5823 5823 5823 5822 5822 5822 5821 5821 5820 5819 5818 5817 5817 5816 5815 5814 5813 5813 5812 5811 5810 5809 5808 5807 5806 5805 5803 5802 5800 5798 5796 5793
5818 5819 5819 5819 5819 5819 5819 5820 5820 5820 5820 5820 5820 5821 5820 5819 5819 5819 5818 5818 5817 5816 5815 5814 5813 5812 5811 5811 5810 5809 5808 5807 5806 5805 5804 5803 5802 5801 5800 5799 5797 5795 5793 5791
5817 5818 5818 5818 5818 5818 5818 5818 5817 5817 5817 5818 5817 5818 5817 5816 5816 5815 5815 5814 5813 5813 5812 5811 5810 5809 5808 5807 5806 5805 5804 5803 5802 5801 5800 5799 5798 5797 5796 5795 5793 5792 5790 5789
5815 5815 5815 5815 5816 5815 5818 5815 5815 5814 5814 5814 5814 5813 5813 5813 5812 5812 5811 5810 5809 5808 5807 5806 5805 5804 5804 5803 5802 5801 5799 5798 5797 5796 5795 5794 5793 5793 5792 5790 5789 5788 5787 5785
5812 5813 5813 5812 5812 5812 5812 5811 5811 5810 5810 5810 5809 5809 5809 5808 5808 5807 5806 5805 5804 5803 5802 5801 5800 5799 5798 5797 5796 5795 5794 5793 5792 5791 5790 5789 5788 5787 5786 5785 5784 5783 5782 5781
5809 5809 5809 5809 5808 5808 5810 5807 5806 5807 5806 5805 5804 5804 5803 5803 5803 5802 5801 5799 5799 5798 5797 5796 5794 5793 5792 5791 5790 5790 5789 5787 5786 5785 5784 5783 5782 5782 5781 5780 5779 5778 5777 5776
5805 5805 5804 5804 5803 5803 5804 5803 5802 5802 5802 5800 5799 5798 5798 5797 5797 5796 5794 5793 5792 5791 5790 5789 5788 5787 5786 5785 5784 5783 5782 5781 5780 5779 5777 5776 5775 5775 5774 5773 5772 5771 5771 5770
5800 5799 5799 5798 5798 5800 5797 5796 5796 5796 5794 5793 5793 5792 5791 5790 5789 5788 5787 5786 5785 5784 5783 5781 5780 5779 5778 5776 5776 5775 5774 5773 5772 5771 5770 5769 5768 5767 5766 5765 5765 5764 5763 5763
5794 5795 5793 5793 5794 5792 5790 5790 5789 5788 5787 5786 5785 5784 5783 5782 5781 5780 5779 5778 5776 5775 5774 5772 5771 5770 5768 5767 5766 5765 5764 5763 5762 5761 5761 5760 5759 5758 5757 5757 5756 5756 5755 5755
5788 5787 5786 5786 5785 5784 5783 5782 5781 5780 5779 5778 5776 5775 5774 5773 5771 5770 5769 5768 5766 5765 5763 5762 5760 5759 5758 5756 5755 5754 5753 5752 5751 5751 5750 5749 5749 5748 5747 5747 5746 5746 5746 5746
5781 5779 5778 5778 5777 5776 5775 5773 5772 5771 5769 5768 5767 5765 5764 5762 5761 5759 5758 5756 5754 5753 5751 5749 5748 5747 5745 5744 5743 5742 5740 5739 5739 5738 5738 5737 5737 5736 5735 5735 5735 5735 5735 5735
5772 5771 5770 5769 5768 5766 5766 5764 5762 5761 5759 5757 5756 5754 5752 5750 5748 5747 5745 5743 5741 5739 5738 5736 5734 5733 5731 5730 5729 5728 5727 5726 5725 5725 5724 5723 5723 5723 5723 5723 5723 5723 5724 5724